Location: Castle
(40.7167°S, 175.9500°E)
Time: 04:34:06
(UTC+00:00)

IGS 5A - Pass Details

Date: 04 August 2024
Orbit: 568 x 571 km, 97.4° (Epoch: 26 July)

Event Time Altitude Azimuth Distance (km) Brightness Sun altitude
Rises 18:42:47 0° 1° (N) 2,768 7.1 -7.2°
Reaches altitude 10° 18:44:58 10° 356° (N) 1,879 6.2 -6.8°
Maximum altitude 18:48:56 51° 279° (W) 738 3.6 -6.1°
Drops below altitude 10° 18:52:58 10° 203° (SSW) 1,909 5.7 -5.4°
Sets 18:55:12 0° 197° (SSW) 2,816 6.6 -5.0°
